[[{"header":{"parameterUnit":"m.s-1","parameterCategory":1,"la1":30.2991,"la2":30.254,"lo1":-89.0895,"lo2":-89.0444,"dy":0.0017,"dx":0.0017,"nx":28,"ny":28,"refTime":"2023-09-13T21:00:00:Z","depth":0,"parameterNumber":2,"parameterNumberName":"U-component_of_WINDS"},"data":[0,0,0,0,0,0,0,0,0,0,0,0,0,0,0,0,0,0,0,0,0,0,0,0,0,0,0,0,0,0,0,0,0,0,0,0,0,0,0,0,0,0,0,0,0,0,0,0,0,0,0,0,0,0,0,0,0,0,1.0642,1.0643,0,1.0736,1.0737,1.0739,1.0696,1.0693,1.0691,1.0689,1.0792,1.0797,1.0802,0,0,0,0,0,0,0,0,0,0,0,0,0,1.0428,1.0432,1.0642,1.0643,1.0644,1.0736,1.0738,1.0739,1.0696,1.0693,1.069,1.0687,1.079,1.0796,1.0802,0,0,0,0,0,0,0,0,0,0,0,0,0,1.0522,1.0433,1.0641,1.0634,1.0634,1.0736,1.0738,1.0739,1.0697,1.0693,1.0689,1.0686,1.0789,1.0796,1.0803,1.0921,0,0,1.0826,1.0829,0,0,0,0,0,0,0,0,1.0516,1.053,1.0634,1.0634,1.0635,1.07,1.07,1.08,1.0697,1.0673,1.0688,1.0684,1.0765,1.0774,1.08,1.0925,1.093,1.0827,1.0831,1.0834,1.0836,0,0,0,0,0,0,0,1.051,1.0525,1.0679,1.0635,1.0636,1.0627,1.0636,1.0719,1.0738,1.0675,1.0672,1.0683,1.0765,1.0793,1.0802,1.0931,1.0826,1.0833,1.0838,1.0841,1.1157,1.116,0,0,0,0,0,0,1.0503,1.052,1.0676,1.0682,1.0565,1.0633,1.0644,1.0683,1.0737,1.0742,1.0686,1.0681,1.0782,1.0793,1.0806,1.0946,1.0834,1.0841,1.0846,1.1153,1.1158,1.1162,0,0,0,0,0,0,1.0498,1.0517,1.0672,1.06,1.0619,1.0641,1.0685,1.0687,1.0715,1.0745,1.0749,1.0711,1.0779,1.0795,1.0892,1.0949,1.0845,1.0851,1.1148,1.1154,1.116,1.1229,0,0,0,0,0,0,1.0492,1.0516,1.056,1.0602,1.0623,1.0756,1.0689,1.0691,1.0727,1.0721,1.077,1.0775,1.0778,1.0881,1.0899,1.0958,1.0857,1.1143,1.1151,1.1158,1.1222,1.1236,1.1249,0,0,0,0,0,1.0485,1.0578,1.0562,1.0582,1.0679,1.0759,1.0772,1.0772,1.0732,1.0777,1.0796,1.0773,1.0939,1.0891,1.0911,1.0973,1.114,1.1149,1.1157,1.1216,1.1234,1.1249,0,0,0,0,0,0,1.0545,1.0583,1.0567,1.0675,1.0714,1.0752,1.0809,1.0791,1.0844,1.0837,1.0836,1.0847,1.0947,1.0969,1.0915,1.1089,1.1034,1.1047,1.1071,1.1088,1.1102,1.1095,1.0863,0,0,0,0,0,1.0571,1.0631,1.0661,1.0754,1.0774,1.0788,1.0823,1.0819,1.0861,1.0878,1.0904,1.0947,1.1008,1.1049,1.1108,1.1223,1.1234,1.1276,1.129,1.1301,1.1313,1.1376,1.1395,1.1191,1.1191,1.1191,0,0,1.0625,1.0653,1.0692,1.0767,1.0797,1.0861,1.0803,1.0874,1.0921,1.0889,1.0981,1.1002,1.1049,1.1156,1.1204,1.1178,1.1371,1.1312,1.1321,1.1327,1.1387,1.1406,1.1423,1.1197,1.1196,1.1195,0,0,1.0757,1.0783,1.0863,1.0893,1.0937,1.0946,1.0964,1.1005,1.1016,1.1108,1.1084,1.1142,1.1248,1.1282,1.1314,1.1455,1.1436,1.1474,1.1547,1.1608,1.1624,1.1638,1.1689,1.1707,1.1485,1.1486,1.1486,0,1.082,1.0914,1.0907,1.0979,1.1013,1.0983,1.1064,1.1094,1.1156,1.1181,1.1149,1.128,1.131,1.1424,1.1458,1.1484,1.1507,1.147,1.1621,1.1636,1.1649,1.1698,1.1717,1.149,1.149,1.1489,1.1489,0,1.0989,1.1054,1.1113,1.1171,1.1211,1.1288,1.1294,1.1335,1.1326,1.1338,1.1432,1.1465,1.153,1.1556,1.155,1.1669,1.1651,1.162,1.1566,1.1673,1.1719,1.1737,1.1496,1.1495,1.1493,1.1492,0,0,1.1165,1.1215,1.1237,1.1262,1.1307,1.1359,1.1433,1.1493,1.1529,1.1572,1.1635,1.1724,1.1695,1.1731,1.1727,1.1781,1.189,1.1744,1.1745,1.1771,1.2024,1.2048,1.2069,1.1876,1.188,1.1883,1.202,0,1.1301,1.1429,1.1424,1.1545,1.1605,1.1576,1.1641,1.1676,1.1688,1.1742,1.1756,1.1819,1.1776,1.1797,1.1848,1.1866,1.1941,1.1856,1.1937,1.194,1.1928,1.2093,1.2119,1.2248,1.2038,1.2041,1.2043,0,1.1478,1.1523,1.1649,1.1683,1.1708,1.1767,1.182,1.1872,1.1911,1.1916,1.1953,1.1941,1.2017,1.1958,1.2063,1.2005,1.2038,1.2051,1.2056,1.2066,1.2,1.2109,1.2289,1.2309,1.2071,1.2069,1.2067,0,1.1595,1.1688,1.1775,1.1797,1.1839,1.188,1.19,1.1935,1.1971,1.2018,1.2041,1.2097,1.2129,1.2173,1.2176,1.2132,1.2283,1.2224,1.2291,1.2291,1.2327,1.2325,1.2516,1.2344,1.2344,1.2344,1.2343,0,1.1749,1.1827,1.1828,1.1882,1.1969,1.1961,1.2048,1.2064,1.2095,1.2152,1.213,1.2184,1.2184,1.224,1.2243,1.233,1.2344,1.2352,1.2352,1.2355,1.2354,1.2378,1.237,1.2349,1.2348,1.2347,1.2346,0,1.1896,1.1899,1.1992,1.2022,1.2031,1.2094,1.2121,1.2173,1.218,1.2253,1.227,1.2284,1.2348,1.2354,1.243,1.2432,1.2537,1.2527,1.2524,1.2523,1.259,1.2584,1.2805,1.2834,1.2642,1.2644,1.2645,0,1.1995,1.2054,1.2089,1.2125,1.2146,1.2203,1.2238,1.2233,1.2271,1.2318,1.2364,1.2425,1.2474,1.2578,1.2596,1.2654,1.2646,1.2719,1.2655,1.2655,1.2649,1.2646,1.2652,1.2733,1.2735,1.2736,1.2738,0,1.2171,1.2169,1.2219,1.227,1.2311,1.2352,1.2389,1.242,1.2419,1.2463,1.2526,1.2564,1.2639,1.27,1.2756,1.2777,1.2759,1.2757,1.2776,1.2781,1.2777,1.2781,1.256,1.2753,1.2752,1.275,1.275,1.2749,1.2299,1.2349,1.2381,1.2438,1.2464,1.2499,1.2548,1.2561,1.2613,1.2672,1.2665,1.2736,1.2772,1.2844,1.2869,1.2925,1.2901,1.2929,1.2936,1.2943,1.2951,1.2765,1.2935,1.2935,1.2935,1.2934,1.2934,0,1.2475,1.2492,1.2544,1.2595,1.264,1.2613,1.2653,1.2692,1.2754,1.2788,1.2835,1.2908,1.2966,1.2987,1.3044,1.3085,1.3078,1.3101,1.3099,1.3105,1.2968,1.2947,1.3106,1.3106,1.3106,1.3106,1.3106,1.3106,1.2572,1.2656,1.2657,1.2754,1.2771,1.2838,1.2863,1.2895,1.2922,1.3003,1.3051,1.3062,1.3091,1.3149,1.3202,1.3207,1.323,1.3257,1.3258,1.3131,1.3114,1.3098,1.3078,1.3262,1.3262,1.339,1.3391,1.3392]},{"header":{"parameterUnit":"m.s-1","parameterCategory":1,"la1":30.2991,"la2":30.254,"lo1":-89.0895,"lo2":-89.0444,"dy":0.0017,"dx":0.0017,"nx":28,"ny":28,"refTime":"2023-09-13T21:00:00:Z","depth":0,"parameterNumber":3,"parameterNumberName":"V-component_of_WINDS"},"data":[0,0,0,0,0,0,0,0,0,0,0,0,0,0,0,0,0,0,0,0,0,0,0,0,0,0,0,0,0,0,0,0,0,0,0,0,0,0,0,0,0,0,0,0,0,0,0,0,0,0,0,0,0,0,0,0,0,0,2.5746,2.5745,0,2.5678,2.5677,2.5677,2.5542,2.554,2.5537,2.5534,2.5468,2.5468,2.5469,0,0,0,0,0,0,0,0,0,0,0,0,0,2.5761,2.5761,2.5746,2.5745,2.5744,2.5678,2.5677,2.5676,2.5543,2.5539,2.5536,2.5533,2.5467,2.5468,2.5469,0,0,0,0,0,0,0,0,0,0,0,0,0,2.573,2.5761,2.5746,2.5669,2.5662,2.5678,2.5677,2.5676,2.5543,2.5539,2.5535,2.5532,2.5467,2.5468,2.5469,2.5556,0,0,2.5472,2.5473,0,0,0,0,0,0,0,0,2.5732,2.573,2.5681,2.5675,2.5666,2.5614,2.5658,2.5636,2.5544,2.5588,2.5534,2.553,2.552,2.5516,2.5512,2.5552,2.5549,2.5472,2.5473,2.5473,2.5474,0,0,0,0,0,0,0,2.5734,2.5732,2.5719,2.5681,2.5672,2.5639,2.563,2.5653,2.5577,2.5584,2.5574,2.5568,2.5515,2.5512,2.551,2.5549,2.5472,2.5473,2.5474,2.5474,2.5654,2.5658,0,0,0,0,0,0,2.5747,2.5734,2.5721,2.5717,2.569,2.5642,2.5632,2.5635,2.5577,2.5564,2.5572,2.5562,2.5512,2.5509,2.5507,2.5603,2.5473,2.5474,2.5475,2.565,2.5655,2.566,0,0,0,0,0,0,2.5748,2.5747,2.5724,2.5723,2.5717,2.5646,2.5651,2.5636,2.5632,2.5567,2.5553,2.5582,2.5509,2.5506,2.5544,2.5599,2.5475,2.5476,2.5645,2.5652,2.5658,2.5797,0,0,0,0,0,0,2.5749,2.5748,2.578,2.5725,2.5718,2.5762,2.5654,2.5638,2.5634,2.5621,2.5573,2.5562,2.5505,2.5543,2.5545,2.5598,2.5477,2.564,2.5648,2.5656,2.5788,2.5808,2.5825,0,0,0,0,0,2.575,2.5823,2.5783,2.5782,2.5756,2.5766,2.5762,2.5695,2.564,2.5671,2.5629,2.5563,2.5593,2.5548,2.5549,2.5604,2.5636,2.5646,2.5655,2.5779,2.5804,2.5824,0,0,0,0,0,0,2.5888,2.5814,2.5769,2.5826,2.5803,2.5743,2.5781,2.5723,2.5716,2.5704,2.5622,2.5612,2.5662,2.5636,2.5588,2.5683,2.5604,2.5614,2.5698,2.5721,2.5739,2.5744,2.5478,0,0,0,0,0,2.5925,2.5938,2.5873,2.593,2.5921,2.5853,2.5855,2.5805,2.5778,2.5768,2.5728,2.5706,2.5709,2.5714,2.5714,2.5783,2.577,2.5821,2.584,2.5855,2.5865,2.5899,2.592,2.5691,2.569,2.569,0,0,2.6002,2.5963,2.5977,2.5957,2.5933,2.5949,2.5846,2.5867,2.5878,2.5771,2.5805,2.5775,2.5744,2.5798,2.582,2.5779,2.5926,2.5867,2.588,2.5881,2.5911,2.5933,2.5952,2.5697,2.5696,2.5695,0,0,2.615,2.6122,2.6166,2.6144,2.6109,2.6063,2.6074,2.6022,2.5998,2.603,2.595,2.5962,2.5971,2.5951,2.5943,2.6083,2.6022,2.6085,2.6182,2.6216,2.6234,2.625,2.6299,2.6318,2.6095,2.6095,2.6095,0,2.625,2.627,2.6196,2.6222,2.6215,2.6118,2.6162,2.6144,2.6112,2.611,2.6064,2.6071,2.6044,2.6091,2.6125,2.6122,2.6131,2.609,2.6238,2.6253,2.6266,2.6312,2.6331,2.6103,2.6102,2.6101,2.6101,0,2.6394,2.6409,2.6449,2.6418,2.6416,2.6451,2.6383,2.639,2.634,2.6299,2.6333,2.6296,2.6286,2.6294,2.6247,2.6335,2.631,2.6253,2.6171,2.6297,2.6339,2.6356,2.6114,2.6111,2.6109,2.6107,0,0,2.6627,2.6555,2.6571,2.6555,2.6509,2.6519,2.655,2.6539,2.6547,2.6528,2.6551,2.656,2.6505,2.6496,2.6445,2.6475,2.6587,2.6413,2.6411,2.6446,2.6681,2.6725,2.6747,2.6546,2.6549,2.6552,2.6684,0,2.6764,2.6811,2.6745,2.6807,2.682,2.6728,2.6754,2.6729,2.6692,2.6697,2.6656,2.6663,2.6591,2.6585,2.661,2.6568,2.6633,2.6558,2.6567,2.6568,2.6577,2.6768,2.6815,2.6941,2.67,2.6702,2.6704,0,2.693,2.6918,2.6981,2.693,2.6933,2.6958,2.6942,2.6949,2.6918,2.6889,2.6878,2.6817,2.6843,2.6764,2.6799,2.6749,2.6749,2.6729,2.6732,2.673,2.6644,2.6772,2.698,2.6999,2.6729,2.6727,2.6726,0,2.7093,2.7093,2.713,2.7119,2.7061,2.7081,2.7057,2.7023,2.702,2.7007,2.7005,2.6996,2.6991,2.6985,2.6923,2.6871,2.6965,2.6881,2.6942,2.6943,2.6965,2.6965,2.7177,2.6966,2.6966,2.6966,2.6965,0,2.7253,2.7295,2.7202,2.7225,2.7269,2.7193,2.7239,2.7206,2.7176,2.7191,2.7112,2.7128,2.7045,2.7052,2.7004,2.704,2.7038,2.7015,2.7002,2.7022,2.7025,2.7021,2.701,2.6971,2.697,2.6969,2.6968,0,2.7443,2.7382,2.7416,2.7358,2.7344,2.7379,2.7329,2.7348,2.7305,2.7325,2.7326,2.7259,2.7263,2.7201,2.7193,2.716,2.7218,2.7189,2.7228,2.7219,2.7282,2.7277,2.7499,2.7524,2.7298,2.7301,2.7302,0,2.7548,2.7578,2.7523,2.7527,2.7507,2.7515,2.7511,2.7438,2.7438,2.7405,2.7428,2.7425,2.7419,2.743,2.7381,2.7374,2.7345,2.7423,2.7343,2.7362,2.7345,2.7344,2.7346,2.744,2.7442,2.7445,2.7447,0,2.7742,2.771,2.7708,2.7696,2.7695,2.7682,2.7664,2.7672,2.7591,2.7595,2.7598,2.7593,2.7585,2.7583,2.7567,2.7543,2.7482,2.7472,2.7485,2.7506,2.7528,2.7516,2.7273,2.7467,2.7465,2.7464,2.7462,2.7462,2.7892,2.7914,2.7878,2.7879,2.7857,2.7842,2.7856,2.7815,2.7816,2.7803,2.7759,2.7769,2.7737,2.7709,2.7691,2.7697,2.7659,2.7679,2.7684,2.769,2.7701,2.7527,2.7694,2.7694,2.7693,2.7692,2.7692,0,2.8081,2.8053,2.8055,2.8031,2.8032,2.7973,2.795,2.7954,2.7964,2.7939,2.7934,2.7937,2.7935,2.7886,2.7878,2.7893,2.7864,2.7893,2.7891,2.7886,2.7736,2.7725,2.7916,2.7916,2.7916,2.7916,2.7916,2.7916,2.8179,2.8213,2.8177,2.82,2.8171,2.818,2.8172,2.8158,2.8137,2.8144,2.8141,2.8109,2.8074,2.8062,2.8057,2.8043,2.8043,2.8082,2.8058,2.7919,2.7897,2.7876,2.7866,2.8083,2.8083,2.8207,2.8208,2.8209]}]]